Wind_Speed
10 10 11 11 11 14 16 17 19 20 22 21 21 22 21 20 19 19 17 16 16 17 18 19 19 19 20 21 22 23 24 25 25 26 26 27 27 28 28 29 29 29 30 30
10 10 11 11 13 14 15 18 19 21 22 20 21 21 21 19 18 18 17 16 17 17 18 18 19 19 18 19 20 21 22 24 25 25 25 26 27 28 28 29 29 29 28 28
10 9 10 10 12 14 15 17 19 20 20 20 19 20 19 18 18 17 16 16 17 17 17 17 17 18 18 18 20 20 21 22 23 24 25 26 25 25 26 26 26 26 27 27
9 8 9 11 13 14 15 17 18 19 19 19 19 19 18 17 16 15 14 13 14 14 15 16 16 17 18 18 18 18 20 21 22 22 22 22 23 23 23 23 24 24 24 25
8 9 10 13 14 14 17 18 18 18 19 19 19 18 16 15 14 14 13 12 12 12 12 13 14 14 14 16 17 17 17 18 19 20 20 20 21 22 22 22 23 24 24 25
9 11 11 14 14 15 17 18 18 18 18 18 17 16 15 14 13 13 12 12 11 11 11 12 12 12 14 14 15 16 16 17 18 19 18 19 20 20 20 20 21 22 23 24
10 12 14 15 15 16 17 17 18 18 18 17 16 15 15 14 13 13 12 12 11 11 11 11 11 11 12 12 13 13 14 15 15 16 16 17 17 17 18 19 20 20 21 22
10 11 14 14 15 16 16 17 17 17 17 16 15 14 13 13 12 11 10 9 9 9 9 10 10 10 10 11 11 12 12 12 13 13 14 15 15 16 17 18 19 19 20 21
9 11 12 13 14 15 15 15 15 16 15 14 14 12 12 11 11 10 8 8 7 8 8 9 9 9 8 9 9 10 10 11 12 14 14 15 15 15 16 17 18 18 19 19
9 10 11 12 13 13 14 14 14 14 14 13 12 11 10 10 9 7 7 7 7 7 7 8 8 9 9 8 9 9 10 10 11 12 12 12 13 14 15 16 16 17 17 17
9 9 10 11 11 12 13 13 13 13 13 12 11 10 9 9 8 6 5 5 5 6 5 5 5 6 7 8 8 8 9 10 10 11 11 11 12 13 13 14 14 14 14 14
8 8 9 9 10 11 12 12 12 12 12 12 11 10 10 8 7 6 4 3 3 3 4 4 5 5 6 6 7 7 8 9 10 10 11 11 11 12 12 12 12 12 12 12
6 6 7 8 9 10 10 11 11 11 12 12 11 10 9 8 7 5 4 3 3 3 3 4 5 5 6 5 6 7 8 9 9 9 9 9 10 10 11 10 10 10 10 10
4 4 5 7 8 9 9 10 10 11 11 11 12 11 10 9 8 7 6 5 4 4 3 4 4 4 5 5 5 6 6 7 7 7 8 8 8 8 8 8 8 8 8 8
3 3 4 5 6 8 9 10 10 11 11 12 12 12 12 10 10 9 8 7 6 5 4 3 3 3 2 2 3 4 4 4 4 5 5 6 5 5 5 5 5 5 5 5
2 1 2 4 5 7 9 10 10 10 11 12 12 12 12 12 11 10 9 8 8 7 6 5 4 3 3 2 3 3 3 3 3 4 4 3 3 3 3 3 3 3 3 3
3 1 1 3 5 7 8 9 10 10 11 12 13 13 13 13 13 12 11 10 9 8 7 6 5 4 4 3 3 3 3 3 3 3 3 3 3 2 2 2 2 3 3 3
4 3 2 4 5 6 8 9 10 11 12 13 13 14 14 15 15 14 13 12 11 10 9 8 7 7 6 6 6 6 6 5 5 5 5 5 4 4 4 4 4 4 4 5
6 4 4 4 5 7 8 9 10 12 12 13 14 15 15 15 15 15 16 15 14 13 11 10 10 9 9 9 9 9 9 9 9 8 8 7 7 7 7 6 6 6 6 6
7 6 5 5 6 7 8 9 11 12 13 13 14 15 15 16 16 17 17 17 17 16 15 14 13 12 12 12 12 12 12 12 11 11 11 10 10 9 9 8 8 7 7 8
8 7 6 6 6 7 8 9 10 11 12 13 14 15 16 16 17 18 18 19 19 19 18 17 17 16 15 14 14 13 13 13 13 13 13 12 12 11 10 10 9 9 9 9
10 8 8 7 7 7 8 8 9 11 11 13 14 15 15 16 17 18 19 20 20 20 19 19 19 18 17 16 16 15 15 15 15 14 14 14 13 12 12 12 11 11 10 10
11 10 9 8 8 8 8 9 10 11 11 12 13 14 15 16 16 17 18 19 20 20 19 19 19 19 19 18 17 17 17 16 16 15 15 14 14 14 13 13 12 12 11 11
13 12 10 9 8 8 8 9 9 10 11 12 13 14 14 15 15 16 17 18 18 19 19 19 19 19 19 18 18 18 18 17 16 15 14 14 14 13 13 13 12 12 12 11
15 13 12 10 9 8 8 9 9 10 10 11 12 13 13 14 15 15 16 16 17 17 18 18 18 19 18 17 17 18 18 17 17 16 15 14 13 13 13 12 12 11 11 11
17 15 13 11 9 8 8 8 8 9 10 10 11 11 12 12 13 14 14 15 16 16 16 16 17 17 17 16 17 17 17 16 16 15 15 14 13 12 12 11 11 10 10 10
19 17 14 12 10 9 8 7 7 8 9 9 10 10 11 11 12 12 13 13 14 14 15 15 15 15 15 15 16 16 16 15 15 15 14 14 13 12 11 10 10 10 10 9
Wind_Direction
287 289 293 296 292 288 289 290 292 293 294 296 299 298 298 297 294 288 282 271 261 258 256 254 252 252 247 247 248 248 247 249 250 251 253 255 257 257 261 263 264 266 267 268
285 289 289 290 290 289 289 292 294 295 298 299 300 299 299 298 294 288 281 271 262 258 258 255 254 253 250 249 249 248 247 248 249 250 251 255 256 257 258 261 263 265 265 266
279 279 282 295 293 290 294 296 299 301 303 304 304 302 300 298 294 288 281 275 266 260 257 253 251 251 252 250 247 246 247 248 248 251 252 253 254 255 257 259 263 264 265 267
285 290 293 298 299 299 301 303 303 307 308 308 306 304 302 302 296 292 286 278 269 264 258 254 253 252 250 251 249 249 250 251 251 252 254 255 255 259 260 262 263 264 267 268
288 287 291 294 301 307 310 309 310 310 310 309 307 305 304 302 296 293 289 281 276 269 261 255 254 252 248 249 249 250 251 251 250 252 254 256 260 261 263 262 263 265 268 270
289 299 301 296 306 310 311 311 313 315 313 311 309 306 305 302 297 294 287 283 279 274 268 263 261 256 248 250 249 250 252 253 252 253 256 260 263 265 266 267 268 271 273 275
291 295 295 306 312 314 313 313 316 318 316 313 311 309 307 304 298 293 285 280 276 274 271 263 260 258 256 251 250 250 250 252 253 255 259 261 263 267 269 270 273 276 277 277
283 288 296 308 312 315 316 317 319 320 319 317 314 310 307 306 301 297 290 281 275 268 264 260 259 257 251 249 251 254 255 255 258 262 264 263 267 270 273 275 277 279 281 282
291 294 302 309 315 318 320 322 324 326 327 323 319 315 312 312 308 302 295 286 279 270 265 262 261 262 256 257 258 259 259 260 264 267 267 269 270 273 276 279 280 282 281 281
291 299 308 315 320 322 325 328 331 334 334 332 328 324 320 317 315 309 303 289 285 279 272 263 259 255 255 256 261 264 266 266 267 268 271 273 275 278 280 281 282 283 282 281
290 301 312 321 327 330 334 336 339 343 343 344 340 337 334 330 325 321 316 298 288 286 273 264 263 259 260 261 263 266 267 268 271 273 274 277 280 282 284 284 285 284 282 282
291 306 318 329 335 340 343 345 347 351 355 355 354 353 353 353 348 343 338 322 312 303 279 269 269 271 268 267 267 270 274 276 276 276 277 279 282 284 285 286 287 285 283 281
288 305 323 337 344 349 353 356 0 2 4 7 8 7 8 7 7 10 6 354 342 326 305 289 282 276 275 278 280 278 278 278 278 278 280 283 284 285 284 284 285 287 286 284
282 306 327 341 350 358 3 8 11 14 16 18 19 20 20 22 24 25 21 14 3 350 335 319 307 293 287 287 288 287 283 279 279 282 285 288 289 288 286 287 289 291 291 289
265 309 336 353 6 11 14 17 19 22 24 25 24 26 29 32 31 30 29 26 21 18 12 2 354 345 330 319 315 309 301 294 292 295 297 298 298 296 296 299 299 301 303 305
230 290 349 13 21 24 25 28 30 31 32 31 31 32 36 38 37 36 34 31 30 33 36 34 27 20 20 12 355 342 331 327 329 330 329 331 332 325 327 330 330 335 341 344
205 201 48 41 39 35 35 37 37 37 37 38 39 41 41 41 40 39 38 37 38 39 39 40 41 40 38 32 24 19 16 17 19 20 17 21 23 24 25 23 19 19 22 24
184 156 102 71 61 51 47 47 45 44 45 44 45 47 46 44 44 44 43 42 42 44 46 47 50 54 54 51 49 50 52 53 53 53 50 49 50 56 59 60 61 59 53 47
167 149 120 93 76 65 59 56 54 52 51 50 50 50 49 48 47 47 47 48 49 52 54 55 58 62 63 64 64 64 65 65 65 64 63 63 65 67 69 69 68 66 59 54
165 151 132 111 92 78 69 64 61 58 56 54 53 52 52 51 51 51 52 53 54 56 59 61 64 67 69 71 71 70 70 69 68 68 68 68 69 70 70 70 69 67 64 59
166 154 140 124 105 90 80 72 67 63 60 58 56 56 55 56 56 56 56 57 58 60 62 65 67 69 70 72 73 72 72 71 69 68 68 68 69 70 70 69 68 67 66 64
167 157 144 130 115 101 89 80 72 67 63 60 59 59 59 59 59 59 59 59 60 61 63 65 67 69 70 71 73 73 72 71 70 69 69 69 69 70 69 69 68 67 65 63
167 158 147 135 121 108 97 86 78 72 67 64 62 61 60 60 60 60 60 60 61 62 63 64 66 67 68 69 70 72 71 71 70 70 69 69 69 69 69 68 67 65 64 62
168 160 151 141 128 115 103 92 84 77 71 67 65 63 62 61 60 60 60 60 61 61 62 62 63 64 65 66 67 68 68 68 68 67 68 68 67 67 67 66 65 63 62 59
171 164 156 147 136 123 110 98 89 81 74 69 66 63 63 61 60 59 59 59 60 60 60 60 61 62 62 62 63 64 64 64 64 64 64 64 64 63 63 62 61 59 58 55
174 169 162 154 144 131 117 105 94 84 75 69 64 62 61 59 58 57 57 56 56 57 56 56 57 58 59 59 60 60 59 59 59 58 58 59 59 58 57 55 54 52 50 47
178 175 169 163 154 141 127 113 100 86 75 68 62 59 57 56 55 54 53 53 53 53 52 52 52 53 53 53 54 54 54 53 53 52 52 51 51 49 48 46 44 42 40 36
Height
5749 5748 5747 5747 5747 5746 5744 5742 5740 5737 5734 5732 5730 5727 5725 5723 5721 5720 5718 5717 5718 5718 5719 5720 5721 5723 5725 5726 5728 5731 5733 5736 5738 5740 5742 5744 5746 5749 5751 5752 5753 5754 5756 5757
5746 5746 5745 5745 5744 5742 5741 5739 5736 5734 5731 5728 5726 5724 5722 5719 5718 5716 5715 5714 5714 5715 5715 5716 5717 5719 5720 5722 5724 5726 5728 5731 5733 5735 5737 5739 5740 5742 5744 5745 5747 5747 5749 5750
5743 5743 5743 5742 5741 5739 5737 5735 5733 5731 5728 5725 5722 5720 5718 5715 5714 5712 5711 5711 5711 5711 5711 5712 5713 5715 5717 5718 5720 5722 5724 5726 5728 5729 5731 5733 5734 5736 5737 5739 5740 5741 5742 5743
5740 5741 5740 5741 5738 5736 5734 5732 5729 5727 5725 5722 5719 5717 5714 5712 5711 5709 5708 5707 5707 5707 5708 5709 5710 5711 5712 5714 5716 5717 5719 5721 5723 5724 5725 5727 5728 5730 5731 5732 5734 5735 5736 5736
5739 5738 5738 5737 5735 5733 5731 5729 5726 5724 5721 5718 5715 5713 5711 5709 5708 5707 5706 5705 5705 5705 5705 5705 5706 5707 5708 5710 5712 5713 5715 5716 5718 5720 5721 5722 5724 5725 5726 5727 5728 5729 5730 5730
5737 5736 5735 5734 5732 5730 5729 5726 5723 5720 5717 5715 5712 5711 5709 5706 5705 5704 5703 5702 5702 5702 5702 5703 5703 5704 5705 5706 5708 5709 5711 5713 5714 5715 5716 5718 5719 5720 5721 5722 5723 5724 5724 5725
5735 5734 5733 5731 5729 5729 5728 5725 5720 5717 5714 5711 5709 5708 5706 5703 5702 5701 5700 5699 5699 5699 5699 5700 5700 5701 5702 5704 5705 5706 5707 5709 5710 5711 5712 5713 5715 5715 5716 5717 5718 5718 5719 5719
5733 5733 5733 5730 5728 5727 5725 5721 5718 5715 5711 5709 5706 5704 5702 5700 5699 5698 5697 5697 5696 5696 5697 5697 5698 5699 5700 5701 5702 5703 5704 5705 5706 5708 5709 5710 5710 5711 5712 5712 5713 5713 5713 5713
5732 5733 5730 5728 5726 5724 5722 5719 5716 5713 5709 5707 5704 5702 5700 5698 5697 5696 5695 5695 5694 5694 5694 5695 5696 5697 5697 5698 5699 5700 5701 5702 5703 5704 5705 5706 5707 5707 5708 5708 5708 5708 5708 5708
5731 5730 5728 5727 5725 5723 5720 5717 5714 5711 5708 5705 5703 5700 5699 5697 5695 5694 5693 5693 5693 5692 5693 5693 5694 5695 5695 5696 5697 5698 5699 5699 5700 5701 5702 5702 5703 5703 5703 5703 5703 5703 5703 5703
5730 5729 5727 5726 5724 5721 5719 5716 5713 5710 5707 5705 5702 5700 5698 5696 5695 5693 5693 5692 5692 5691 5691 5692 5692 5693 5694 5694 5695 5696 5696 5697 5697 5698 5698 5699 5699 5699 5699 5699 5699 5699 5699 5699
5730 5728 5727 5725 5723 5721 5718 5716 5713 5710 5708 5705 5702 5700 5698 5696 5694 5693 5692 5692 5691 5691 5691 5691 5691 5692 5692 5693 5693 5694 5694 5694 5695 5695 5695 5696 5696 5696 5696 5696 5696 5695 5695 5695
5729 5728 5727 5725 5723 5721 5719 5716 5714 5711 5708 5706 5703 5701 5699 5697 5695 5694 5693 5692 5691 5691 5690 5690 5690 5690 5691 5691 5691 5692 5692 5692 5693 5693 5693 5693 5693 5693 5693 5693 5693 5692 5692 5692
5728 5728 5727 5725 5724 5722 5719 5717 5715 5712 5710 5707 5705 5702 5700 5698 5696 5695 5693 5692 5691 5691 5690 5689 5689 5689 5689 5689 5690 5690 5690 5690 5691 5691 5691 5690 5690 5690 5690 5690 5690 5690 5690 5689
5729 5728 5728 5726 5724 5723 5721 5718 5716 5714 5712 5709 5707 5704 5702 5700 5698 5696 5695 5694 5692 5691 5690 5690 5689 5689 5689 5689 5689 5689 5689 5689 5689 5689 5689 5689 5688 5688 5688 5688 5688 5688 5688 5688
5729 5728 5728 5727 5726 5724 5722 5720 5718 5716 5714 5712 5710 5707 5705 5703 5701 5699 5697 5696 5694 5693 5692 5691 5690 5690 5689 5689 5689 5689 5689 5688 5688 5688 5688 5688 5688 5688 5688 5688 5688 5688 5688 5688
5729 5729 5729 5728 5727 5726 5724 5722 5721 5719 5717 5715 5713 5710 5708 5706 5704 5702 5700 5698 5696 5695 5694 5693 5692 5691 5691 5690 5690 5690 5689 5689 5688 5688 5688 5688 5688 5688 5688 5688 5688 5688 5688 5688
5729 5730 5730 5729 5729 5728 5726 5725 5723 5722 5720 5718 5716 5714 5712 5709 5707 5705 5703 5701 5699 5697 5696 5695 5694 5693 5692 5692 5691 5691 5690 5690 5690 5689 5689 5689 5689 5689 5689 5689 5689 5690 5690 5689
5729 5731 5731 5731 5730 5730 5729 5728 5726 5725 5723 5721 5719 5717 5715 5713 5711 5709 5706 5704 5702 5700 5698 5697 5696 5695 5694 5694 5693 5693 5692 5692 5691 5691 5691 5691 5690 5690 5691 5691 5691 5691 5691 5691
5731 5731 5732 5732 5732 5732 5731 5730 5729 5728 5727 5725 5723 5721 5719 5717 5715 5713 5710 5708 5706 5704 5702 5700 5699 5698 5698 5697 5697 5696 5696 5695 5694 5694 5694 5693 5693 5693 5693 5693 5693 5693 5693 5693
5731 5732 5733 5734 5734 5734 5734 5733 5732 5731 5730 5728 5727 5725 5723 5721 5719 5717 5715 5713 5711 5709 5707 5705 5704 5703 5702 5701 5700 5700 5699 5699 5698 5698 5697 5697 5697 5696 5696 5696 5696 5696 5695 5695
5732 5733 5734 5735 5736 5736 5736 5736 5735 5734 5733 5732 5731 5729 5727 5726 5724 5722 5720 5719 5716 5714 5712 5711 5709 5708 5707 5706 5705 5704 5703 5703 5702 5702 5701 5701 5700 5700 5700 5699 5699 5699 5698 5698
5733 5734 5736 5737 5738 5738 5738 5738 5738 5737 5736 5735 5734 5733 5731 5730 5729 5727 5726 5724 5722 5720 5718 5717 5715 5713 5712 5711 5710 5709 5708 5707 5707 5706 5705 5705 5704 5704 5703 5703 5702 5702 5701 5701
5733 5735 5737 5738 5739 5740 5740 5740 5740 5740 5739 5738 5738 5736 5735 5734 5733 5732 5730 5728 5727 5725 5724 5722 5720 5719 5717 5716 5715 5714 5713 5712 5711 5710 5710 5709 5708 5708 5707 5706 5706 5705 5704 5704
5734 5736 5738 5740 5741 5742 5742 5742 5742 5742 5742 5741 5741 5740 5739 5738 5737 5736 5734 5733 5731 5730 5729 5727 5726 5724 5723 5722 5720 5719 5718 5717 5716 5715 5714 5713 5712 5711 5711 5710 5709 5708 5708 5707
5734 5737 5739 5741 5742 5743 5744 5744 5745 5745 5744 5744 5743 5743 5742 5741 5740 5739 5738 5737 5736 5734 5733 5732 5730 5729 5727 5727 5725 5723 5722 5721 5720 5719 5718 5717 5716 5715 5714 5713 5712 5711 5710 5709
5734 5736 5739 5741 5743 5744 5745 5746 5746 5747 5747 5746 5746 5745 5744 5744 5743 5742 5741 5740 5739 5738 5737 5736 5734 5733 5732 5731 5729 5728 5726 5725 5724 5722 5721 5720 5719 5718 5717 5716 5715 5713 5712 5711